| time (UTC) | temp C | wind direction | speed KPH | gust KPH | rain 1hr cm | rain 24hr cm | rain mn cm | humidity % | barometer mb |
| 20260507193042 | 10 | 239 | 17.7 | 27.4 | 0.00 | 0.00 | 0.00 | 62 | 1009.5 |
| 20260507192541 | 10 | 254 | 22.5 | 27.4 | 0.00 | 0.00 | 0.00 | 62 | 1009.5 |
| 20260507192031 | 10 | 264 | 17.7 | 24.1 | 0.00 | 0.00 | 0.00 | 63 | 1009.6 |
| 20260507191535 | 10 | 257 | 16.1 | 24.1 | 0.00 | 0.00 | 0.00 | 61 | 1009.6 |
| 20260507191036 | 10 | 248 | 19.3 | 24.1 | 0.00 | 0.00 | 0.00 | 59 | 1009.7 |
| 20260507190528 | 10 | 244 | 16.1 | 22.5 | 0.00 | 0.00 | 0.00 | 58 | 1009.6 |
| 20260507190101 | 10 | 261 | 14.5 | 22.5 | 0.00 | 0.00 | 0.00 | 55 | 1009.7 |
| 20260507185525 | 10 | 251 | 19.3 | 24.1 | 0.00 | 0.00 | 0.00 | 58 | 1009.7 |
| 20260507185035 | 10 | 260 | 14.5 | 24.1 | 0.00 | 0.00 | 0.00 | 55 | 1009.7 |
| 20260507184521 | 10 | 248 | 17.7 | 24.1 | 0.00 | 0.00 | 0.00 | 58 | 1009.7 |
| 20260507184034 | 10 | 256 | 19.3 | 24.1 | 0.00 | 0.00 | 0.00 | 58 | 1009.7 |
| 20260507183524 | 10 | 253 | 16.1 | 20.9 | 0.00 | 0.00 | 0.00 | 63 | 1009.7 |
| 20260507183040 | 10 | 234 | 17.7 | 25.7 | 0.00 | 0.00 | 0.00 | 64 | 1009.8 |
| 20260507182524 | 10 | 238 | 17.7 | 25.7 | 0.00 | 0.00 | 0.00 | 63 | 1009.8 |
| 20260507182036 | 10 | 249 | 17.7 | 25.7 | 0.00 | 0.00 | 0.00 | 61 | 1009.8 |
| 20260507181526 | 10 | 249 | 19.3 | 24.1 | 0.00 | 0.00 | 0.00 | 60 | 1009.9 |
| 20260507181058 | 10 | 254 | 16.1 | 24.1 | 0.00 | 0.00 | 0.00 | 57 | 1009.9 |
| 20260507180530 | 10 | 281 | 16.1 | 24.1 | 0.00 | 0.00 | 0.00 | 56 | 1010.0 |
| 20260507180041 | 10 | 248 | 14.5 | 20.9 | 0.00 | 0.00 | 0.00 | 62 | 1009.9 |
| 20260507175532 | 10 | 251 | 16.1 | 22.5 | 0.00 | 0.00 | 0.00 | 60 | 1009.9 |
| 20260507175041 | 10 | 269 | 16.1 | 22.5 | 0.00 | 0.00 | 0.00 | 56 | 1010.0 |
| 20260507174540 | 10 | 247 | 14.5 | 22.5 | 0.00 | 0.00 | 0.00 | 61 | 1010.1 |
| 20260507174056 | 11 | 258 | 16.1 | 24.1 | 0.00 | 0.00 | 0.00 | 60 | 1010.0 |
| 20260507173539 | 11 | 269 | 17.7 | 24.1 | 0.00 | 0.00 | 0.00 | 59 | 1010.0 |
| 20260507172532 | 11 | 244 | 14.5 | 24.1 | 0.00 | 0.00 | 0.00 | 58 | 1010.2 |
| 20260507172038 | 11 | 257 | 16.1 | 24.1 | 0.00 | 0.00 | 0.00 | 63 | 1010.3 |
| 20260507171526 | 10 | 250 | 9.7 | 19.3 | 0.00 | 0.00 | 0.00 | 65 | 1010.3 |
| 20260507171038 | 10 | 251 | 14.5 | 20.9 | 0.00 | 0.00 | 0.00 | 64 | 1010.4 |
| 20260507170544 | 10 | 248 | 11.3 | 17.7 | 0.00 | 0.00 | 0.00 | 65 | 1010.4 |
| 20260507170036 | 10 | 257 | 9.7 | 17.7 | 0.00 | 0.00 | 0.00 | 64 | 1010.5 |
| 20260507165544 | 9 | 256 | 6.4 | 14.5 | 0.00 | 0.00 | 0.00 | 63 | 1010.6 |
| 20260507165057 | 9 | 252 | 9.7 | 12.9 | 0.00 | 0.00 | 0.00 | 66 | 1010.7 |
| 20260507164521 | 9 | 241 | 9.7 | 12.9 | 0.00 | 0.00 | 0.00 | 65 | 1010.7 |
| 20260507164035 | 9 | 244 | 9.7 | 14.5 | 0.00 | 0.00 | 0.00 | 64 | 1010.8 |
| 20260507163526 | 10 | 226 | 9.7 | 14.5 | 0.00 | 0.00 | 0.00 | 63 | 1010.8 |
| 20260507163037 | 10 | 261 | 11.3 | 14.5 | 0.00 | 0.00 | 0.00 | 62 | 1010.8 |
| 20260507162525 | 10 | 238 | 11.3 | 14.5 | 0.00 | 0.00 | 0.00 | 62 | 1010.8 |
| 20260507162027 | 10 | 243 | 8.0 | 12.9 | 0.00 | 0.00 | 0.00 | 61 | 1010.9 |
| 20260507161531 | 10 | 236 | 4.8 | 19.3 | 0.00 | 0.00 | 0.00 | 61 | 1011.0 |
| 20260507161025 | 10 | 256 | 9.7 | 19.3 | 0.00 | 0.00 | 0.00 | 63 | 1011.0 |
| 20260507160559 | 10 | 246 | 12.9 | 19.3 | 0.00 | 0.00 | 0.00 | 64 | 1011.0 |
| 20260507160028 | 10 | 300 | 9.7 | 17.7 | 0.00 | 0.00 | 0.00 | 60 | 1011.0 |
| 20260507155538 | 10 | 261 | 12.9 | 17.7 | 0.00 | 0.00 | 0.00 | 63 | 1011.1 |
| 20260507155057 | 9 | 252 | 6.4 | 19.3 | 0.00 | 0.00 | 0.00 | 61 | 1011.1 |
| 20260507154556 | 9 | 245 | 11.3 | 16.1 | 0.00 | 0.00 | 0.00 | 67 | 1011.1 |
| 20260507154026 | 8 | 223 | 3.2 | 14.5 | 0.00 | 0.00 | 0.00 | 67 | 1011.1 |
| 20260507153536 | 8 | 258 | 8.0 | 14.5 | 0.00 | 0.00 | 0.00 | 68 | 1011.2 |
| 20260507153024 | 8 | 35 | 3.2 | 8.0 | 0.00 | 0.00 | 0.00 | 66 | 1011.1 |
| 20260507152532 | 8 | 296 | 4.8 | 9.7 | 0.00 | 0.00 | 0.00 | 66 | 1011.1 |
| 20260507152027 | 8 | 307 | 6.4 | 14.5 | 0.00 | 0.00 | 0.00 | 65 | 1011.1 |
| 20260507151534 | 8 | 245 | 9.7 | 14.5 | 0.00 | 0.00 | 0.00 | 66 | 1011.1 |
| 20260507151031 | 8 | 250 | 6.4 | 14.5 | 0.00 | 0.00 | 0.00 | 66 | 1011.1 |
| 20260507150539 | 8 | 250 | 8.0 | 9.7 | 0.00 | 0.00 | 0.00 | 67 | 1011.1 |
| 20260507150029 | 8 | 1 | 4.8 | 8.0 | 0.00 | 0.00 | 0.00 | 64 | 1011.1 |
| 20260507145600 | 8 | 344 | 3.2 | 11.3 | 0.00 | 0.00 | 0.00 | 64 | 1011.0 |
| 20260507145027 | 8 | 351 | 4.8 | 11.3 | 0.00 | 0.00 | 0.00 | 63 | 1011.0 |
| 20260507144535 | 8 | 20 | 6.4 | 12.9 | 0.00 | 0.00 | 0.00 | 65 | 1010.9 |
| 20260507144023 | 8 | 351 | 4.8 | 8.0 | 0.00 | 0.00 | 0.00 | 67 | 1011.0 |
| 20260507143532 | 7 | 317 | 4.8 | 9.7 | 0.00 | 0.00 | 0.00 | 64 | 1011.0 |
| 20260507143025 | 8 | 262 | 3.2 | 9.7 | 0.00 | 0.00 | 0.00 | 66 | 1011.1 |
| 20260507142534 | 8 | 179 | 3.2 | 11.3 | 0.00 | 0.00 | 0.00 | 65 | 1011.0 |
| 20260507142042 | 8 | 295 | 6.4 | 11.3 | 0.00 | 0.00 | 0.00 | 64 | 1011.0 |
| 20260507141531 | 8 | 13 | 4.8 | 11.3 | 0.00 | 0.00 | 0.00 | 63 | 1011.0 |
| 20260507141042 | 8 | 11 | 6.4 | 11.3 | 0.00 | 0.00 | 0.00 | 64 | 1010.9 |
| 20260507140545 | 8 | 299 | 4.8 | 8.0 | 0.00 | 0.00 | 0.00 | 67 | 1011.0 |
| 20260507140039 | 8 | 28 | 3.2 | 6.4 | 0.00 | 0.00 | 0.00 | 64 | 1011.0 |
| 20260507135547 | 8 | 223 | 3.2 | 9.7 | 0.00 | 0.00 | 0.00 | 65 | 1011.0 |
| 20260507135036 | 8 | 290 | 4.8 | 9.7 | 0.00 | 0.00 | 0.00 | 64 | 1011.0 |
| 20260507134541 | 7 | 250 | 1.6 | 4.8 | 0.00 | 0.00 | 0.00 | 65 | 1011.1 |
| 20260507134042 | 7 | 190 | 1.6 | 6.4 | 0.00 | 0.00 | 0.00 | 67 | 1011.1 |
| 20260507133530 | 7 | 175 | 3.2 | 8.0 | 0.00 | 0.00 | 0.00 | 67 | 1011.1 |
| 20260507133035 | 7 | 186 | 4.8 | 8.0 | 0.00 | 0.00 | 0.00 | 68 | 1011.0 |
| 20260507132544 | 7 | 151 | 6.4 | 8.0 | 0.00 | 0.00 | 0.00 | 68 | 1011.1 |
| 20260507132036 | 7 | 157 | 4.8 | 9.7 | 0.00 | 0.00 | 0.00 | 70 | 1011.1 |
| 20260507131523 | 7 | 137 | 6.4 | 9.7 | 0.00 | 0.00 | 0.00 | 69 | 1011.1 |
| 20260507131032 | 7 | 127 | 6.4 | 8.0 | 0.00 | 0.00 | 0.00 | 69 | 1011.0 |
| 20260507130540 | 7 | 135 | 4.8 | 8.0 | 0.00 | 0.00 | 0.00 | 70 | 1011.1 |
| 20260507130032 | 6 | 170 | 6.4 | 8.0 | 0.00 | 0.00 | 0.00 | 70 | 1011.1 |
| 20260507125551 | 6 | 79 | 4.8 | 6.4 | 0.00 | 0.00 | 0.00 | 70 | 1011.1 |
| 20260507125042 | 6 | 165 | 4.8 | 6.4 | 0.00 | 0.00 | 0.00 | 69 | 1011.1 |
| 20260507124531 | 6 | 107 | 4.8 | 11.3 | 0.00 | 0.00 | 0.00 | 71 | 1011.0 |
| 20260507124024 | 6 | 110 | 6.4 | 11.3 | 0.00 | 0.00 | 0.00 | 72 | 1011.0 |
| 20260507123533 | 6 | 127 | 6.4 | 9.7 | 0.00 | 0.00 | 0.00 | 71 | 1011.1 |
| 20260507123028 | 6 | 157 | 4.8 | 11.3 | 0.00 | 0.00 | 0.00 | 71 | 1011.1 |
| 20260507122536 | 6 | 148 | 8.0 | 12.9 | 0.00 | 0.00 | 0.00 | 72 | 1011.1 |
| 20260507122023 | 6 | 155 | 9.7 | 12.9 | 0.00 | 0.00 | 0.00 | 72 | 1011.0 |
| 20260507121534 | 6 | 144 | 8.0 | 9.7 | 0.00 | 0.00 | 0.00 | 72 | 1011.0 |
| 20260507121046 | 6 | 121 | 6.4 | 9.7 | 0.00 | 0.00 | 0.00 | 72 | 1011.1 |
| 20260507120529 | 6 | 119 | 8.0 | 12.9 | 0.00 | 0.00 | 0.00 | 70 | 1011.1 |
| 20260507120042 | 6 | 113 | 9.7 | 12.9 | 0.00 | 0.00 | 0.00 | 71 | 1011.2 |
| 20260507115530 | 6 | 127 | 9.7 | 12.9 | 0.00 | 0.00 | 0.00 | 71 | 1011.0 |
| 20260507115023 | 5 | 140 | 9.7 | 12.9 | 0.00 | 0.00 | 0.00 | 71 | 1011.0 |
| 20260507114526 | 5 | 126 | 9.7 | 14.5 | 0.00 | 0.00 | 0.00 | 71 | 1011.0 |
| 20260507114036 | 5 | 126 | 9.7 | 14.5 | 0.00 | 0.00 | 0.00 | 71 | 1010.9 |
| 20260507113542 | 5 | 122 | 9.7 | 12.9 | 0.00 | 0.00 | 0.00 | 71 | 1010.9 |
| 20260507113025 | 5 | 103 | 9.7 | 12.9 | 0.00 | 0.00 | 0.00 | 71 | 1010.9 |
| 20260507112534 | 5 | 110 | 8.0 | 11.3 | 0.00 | 0.00 | 0.00 | 71 | 1010.8 |
| 20260507112025 | 5 | 129 | 9.7 | 14.5 | 0.00 | 0.00 | 0.00 | 72 | 1010.9 |
| 20260507111536 | 5 | 108 | 11.3 | 14.5 | 0.00 | 0.00 | 0.00 | 72 | 1010.8 |
| 20260507111026 | 5 | 98 | 9.7 | 11.3 | 0.00 | 0.00 | 0.00 | 71 | 1010.8 |
| 20260507110531 | 5 | 122 | 8.0 | 11.3 | 0.00 | 0.00 | 0.00 | 69 | 1010.7 |
| 20260507110042 | 5 | 115 | 4.8 | 9.7 | 0.00 | 0.00 | 0.00 | 68 | 1010.6 |
| 20260507105529 | 5 | 94 | 4.8 | 9.7 | 0.00 | 0.00 | 0.00 | 68 | 1010.6 |
| 20260507105039 | 5 | 75 | 4.8 | 9.7 | 0.00 | 0.00 | 0.00 | 68 | 1010.6 |
| 20260507104526 | 5 | 96 | 6.4 | 8.0 | 0.00 | 0.00 | 0.00 | 68 | 1010.6 |
| 20260507104036 | 5 | 81 | 4.8 | 9.7 | 0.00 | 0.00 | 0.00 | 69 | 1010.5 |
| 20260507103541 | 5 | 63 | 3.2 | 9.7 | 0.00 | 0.00 | 0.00 | 69 | 1010.5 |
| 20260507103033 | 5 | 49 | 4.8 | 9.7 | 0.00 | 0.00 | 0.00 | 69 | 1010.5 |
| 20260507102522 | 5 | 84 | 6.4 | 9.7 | 0.00 | 0.00 | 0.00 | 68 | 1010.6 |
| 20260507102043 | 5 | 59 | 3.2 | 9.7 | 0.00 | 0.00 | 0.00 | 68 | 1010.6 |
| 20260507101531 | 4 | 96 | 8.0 | 9.7 | 0.00 | 0.00 | 0.00 | 68 | 1010.6 |
| 20260507101023 | 4 | 66 | 6.4 | 8.0 | 0.00 | 0.00 | 0.00 | 67 | 1010.7 |
| 20260507100531 | 4 | 79 | 4.8 | 8.0 | 0.00 | 0.00 | 0.00 | 68 | 1010.7 |
| 20260507100025 | 4 | 98 | 4.8 | 8.0 | 0.00 | 0.00 | 0.00 | 68 | 1010.7 |
| 20260507095529 | 4 | 105 | 6.4 | 8.0 | 0.00 | 0.00 | 0.00 | 68 | 1010.7 |
| 20260507095055 | 4 | 68 | 4.8 | 8.0 | 0.00 | 0.00 | 0.00 | 68 | 1010.8 |
| 20260507094525 | 4 | 63 | 3.2 | 8.0 | 0.00 | 0.00 | 0.00 | 69 | 1010.7 |
| 20260507094035 | 4 | 89 | 4.8 | 8.0 | 0.00 | 0.00 | 0.00 | 69 | 1010.8 |
| 20260507093549 | 4 | 105 | 4.8 | 6.4 | 0.00 | 0.00 | 0.00 | 69 | 1010.7 |
| 20260507093041 | 4 | 96 | 4.8 | 8.0 | 0.00 | 0.00 | 0.00 | 69 | 1010.8 |
| 20260507092525 | 4 | 98 | 4.8 | 6.4 | 0.00 | 0.00 | 0.00 | 69 | 1010.7 |
| 20260507092040 | 4 | 98 | 4.8 | 6.4 | 0.00 | 0.00 | 0.00 | 69 | 1010.7 |
| 20260507091528 | 4 | 105 | 3.2 | 6.4 | 0.00 | 0.00 | 0.00 | 69 | 1010.8 |
| 20260507091041 | 4 | 83 | 3.2 | 6.4 | 0.00 | 0.00 | 0.00 | 69 | 1010.8 |
| 20260507090524 | 4 | 84 | 4.8 | 6.4 | 0.00 | 0.00 | 0.00 | 69 | 1010.9 |
| 20260507085531 | 4 | 89 | 3.2 | 6.4 | 0.00 | 0.00 | 0.00 | 69 | 1010.7 |
| 20260507085040 | 4 | 79 | 3.2 | 6.4 | 0.00 | 0.00 | 0.00 | 68 | 1010.8 |
| 20260507084529 | 4 | 89 | 4.8 | 6.4 | 0.00 | 0.00 | 0.00 | 68 | 1010.8 |
| 20260507084042 | 4 | 114 | 3.2 | 6.4 | 0.00 | 0.00 | 0.00 | 67 | 1010.9 |
| 20260507083528 | 4 | 89 | 3.2 | 6.4 | 0.00 | 0.00 | 0.00 | 68 | 1010.8 |
| 20260507083035 | 4 | 100 | 1.6 | 4.8 | 0.00 | 0.00 | 0.00 | 68 | 1010.8 |
| 20260507082523 | 4 | 79 | 3.2 | 4.8 | 0.00 | 0.00 | 0.00 | 68 | 1010.8 |
| 20260507082034 | 3 | 68 | 3.2 | 4.8 | 0.00 | 0.00 | 0.00 | 68 | 1010.9 |
| 20260507081523 | 3 | 108 | 3.2 | 3.2 | 0.00 | 0.00 | 0.00 | 68 | 1011.0 |
| 20260507081116 | 4 | 72 | 1.6 | 4.8 | 0.00 | 0.00 | 0.00 | 68 | 1010.9 |
| 20260507080527 | 4 | 40 | 3.2 | 4.8 | 0.00 | 0.00 | 0.00 | 68 | 1010.9 |
| 20260507080036 | 4 | 28 | 1.6 | 3.2 | 0.00 | 0.00 | 0.00 | 69 | 1011.0 |
| 20260507075524 | 4 | 56 | 1.6 | 4.8 | 0.00 | 0.00 | 0.00 | 69 | 1010.9 |
| 20260507075039 | 4 | 51 | 3.2 | 4.8 | 0.00 | 0.00 | 0.00 | 68 | 1010.9 |
| 20260507074528 | 4 | 35 | 1.6 | 4.8 | 0.00 | 0.00 | 0.00 | 68 | 1010.8 |
| 20260507074037 | 4 | 40 | 3.2 | 4.8 | 0.00 | 0.00 | 0.00 | 68 | 1010.8 |
| 20260507073547 | 4 | 39 | 1.6 | 4.8 | 0.00 | 0.00 | 0.00 | 68 | 1010.8 |
| 20260507073102 | 4 | 32 | 1.6 | 8.0 | 0.00 | 0.00 | 0.00 | 69 | 1010.8 |
| 20260507072524 | 4 | 59 | 4.8 | 8.0 | 0.00 | 0.00 | 0.00 | 69 | 1010.7 |
| 20260507072036 | 4 | 23 | 1.6 | 9.7 | 0.00 | 0.00 | 0.00 | 68 | 1010.7 |
| 20260507071524 | 4 | 23 | 1.6 | 9.7 | 0.00 | 0.00 | 0.00 | 68 | 1010.8 |
| 20260507071036 | 4 | 89 | 4.8 | 8.0 | 0.00 | 0.00 | 0.00 | 68 | 1010.8 |
| 20260507070540 | 4 | 39 | 3.2 | 8.0 | 0.00 | 0.00 | 0.00 | 68 | 1010.8 |
| 20260507070024 | 4 | 56 | 3.2 | 11.3 | 0.00 | 0.00 | 0.00 | 68 | 1010.8 |
| 20260507065530 | 4 | 96 | 4.8 | 11.3 | 0.00 | 0.00 | 0.00 | 68 | 1010.9 |
| 20260507065039 | 4 | 39 | 3.2 | 9.7 | 0.00 | 0.00 | 0.00 | 68 | 1010.8 |
| 20260507064555 | 4 | 74 | 4.8 | 11.3 | 0.00 | 0.00 | 0.00 | 68 | 1010.8 |
| 20260507064032 | 4 | 84 | 6.4 | 11.3 | 0.00 | 0.00 | 0.00 | 68 | 1010.8 |
| 20260507063538 | 4 | 89 | 6.4 | 11.3 | 0.00 | 0.00 | 0.00 | 67 | 1010.9 |
| 20260507063031 | 4 | 81 | 6.4 | 11.3 | 0.00 | 0.00 | 0.00 | 66 | 1010.9 |
| 20260507062539 | 4 | 101 | 6.4 | 9.7 | 0.00 | 0.00 | 0.00 | 66 | 1011.0 |
| 20260507062026 | 4 | 79 | 4.8 | 11.3 | 0.00 | 0.00 | 0.00 | 66 | 1011.0 |
| 20260507061532 | 4 | 74 | 4.8 | 11.3 | 0.00 | 0.00 | 0.00 | 66 | 1011.1 |
| 20260507061043 | 4 | 96 | 6.4 | 12.9 | 0.00 | 0.00 | 0.00 | 66 | 1011.1 |
| 20260507060531 | 5 | 66 | 8.0 | 12.9 | 0.00 | 0.00 | 0.00 | 66 | 1011.2 |
| 20260507060037 | 5 | 77 | 6.4 | 11.3 | 0.00 | 0.00 | 0.00 | 66 | 1011.3 |
| 20260507055547 | 5 | 79 | 6.4 | 11.3 | 0.00 | 0.00 | 0.00 | 67 | 1011.2 |
| 20260507055039 | 5 | 79 | 6.4 | 11.3 | 0.00 | 0.00 | 0.00 | 67 | 1011.2 |
| 20260507054523 | 5 | 71 | 4.8 | 11.3 | 0.00 | 0.00 | 0.00 | 68 | 1011.2 |
| 20260507054047 | 5 | 100 | 8.0 | 11.3 | 0.00 | 0.00 | 0.00 | 67 | 1011.3 |
| 20260507053536 | 5 | 72 | 3.2 | 8.0 | 0.00 | 0.00 | 0.00 | 68 | 1011.3 |
| 20260507053027 | 5 | 63 | 1.6 | 12.9 | 0.00 | 0.00 | 0.00 | 68 | 1011.3 |
| 20260507052531 | 5 | 86 | 4.8 | 12.9 | 0.00 | 0.00 | 0.00 | 68 | 1011.3 |
| 20260507052043 | 5 | 76 | 6.4 | 12.9 | 0.00 | 0.00 | 0.00 | 68 | 1011.3 |
| 20260507051556 | 5 | 77 | 8.0 | 12.9 | 0.00 | 0.00 | 0.00 | 68 | 1011.4 |
| 20260507051042 | 5 | 82 | 6.4 | 12.9 | 0.00 | 0.00 | 0.00 | 68 | 1011.4 |
| 20260507050557 | 5 | 89 | 4.8 | 12.9 | 0.00 | 0.00 | 0.00 | 68 | 1011.4 |
| 20260507050027 | 5 | 101 | 8.0 | 12.9 | 0.00 | 0.00 | 0.00 | 68 | 1011.4 |
| 20260507045525 | 5 | 63 | 4.8 | 22.5 | 0.00 | 0.00 | 0.00 | 68 | 1011.4 |
| 20260507045055 | 5 | 103 | 17.7 | 22.5 | 0.00 | 0.00 | 0.00 | 69 | 1011.3 |
| 20260507044629 | 5 | 127 | 17.7 | 24.1 | 0.00 | 0.00 | 0.00 | 69 | 1011.3 |
| 20260507044039 | 5 | 110 | 17.7 | 24.1 | 0.00 | 0.00 | 0.00 | 69 | 1011.3 |
| 20260507043553 | 5 | 131 | 17.7 | 25.7 | 0.00 | 0.00 | 0.00 | 69 | 1011.2 |
| 20260507043024 | 5 | 122 | 19.3 | 27.4 | 0.00 | 0.00 | 0.00 | 68 | 1011.2 |
| 20260507042527 | 5 | 122 | 22.5 | 27.4 | 0.00 | 0.00 | 0.00 | 68 | 1011.1 |
| 20260507042046 | 5 | 115 | 22.5 | 27.4 | 0.00 | 0.00 | 0.00 | 68 | 1011.1 |
| 20260507041532 | 5 | 110 | 22.5 | 33.8 | 0.00 | 0.00 | 0.00 | 67 | 1011.1 |
| 20260507041043 | 5 | 89 | 22.5 | 33.8 | 0.00 | 0.00 | 0.00 | 66 | 1011.0 |
| 20260507040527 | 5 | 115 | 22.5 | 33.8 | 0.00 | 0.00 | 0.00 | 68 | 1011.0 |
| 20260507040038 | 5 | 124 | 25.7 | 32.2 | 0.00 | 0.00 | 0.00 | 66 | 1010.9 |
| 20260507035540 | 5 | 115 | 25.7 | 32.2 | 0.00 | 0.00 | 0.00 | 67 | 1010.9 |
| 20260507035030 | 5 | 93 | 17.7 | 27.4 | 0.00 | 0.00 | 0.00 | 62 | 1011.0 |
| 20260507034540 | 5 | 100 | 16.1 | 25.7 | 0.00 | 0.00 | 0.00 | 63 | 1011.1 |
| 20260507034047 | 5 | 108 | 16.1 | 25.7 | 0.00 | 0.00 | 0.00 | 62 | 1011.2 |
| 20260507033559 | 5 | 98 | 17.7 | 24.1 | 0.00 | 0.00 | 0.00 | 62 | 1011.3 |
| 20260507033026 | 5 | 108 | 14.5 | 22.5 | 0.00 | 0.00 | 0.00 | 62 | 1011.3 |
| 20260507032536 | 5 | 79 | 11.3 | 19.3 | 0.00 | 0.00 | 0.00 | 61 | 1011.4 |
| 20260507032100 | 5 | 115 | 9.7 | 19.3 | 0.00 | 0.00 | 0.00 | 60 | 1011.4 |
| 20260507031527 | 5 | 122 | 9.7 | 19.3 | 0.00 | 0.00 | 0.00 | 60 | 1011.6 |
| 20260507031039 | 5 | 94 | 12.9 | 19.3 | 0.00 | 0.00 | 0.00 | 60 | 1011.6 |
| 20260507030528 | 5 | 105 | 12.9 | 24.1 | 0.00 | 0.00 | 0.00 | 61 | 1011.7 |
| 20260507030037 | 5 | 83 | 14.5 | 24.1 | 0.00 | 0.00 | 0.00 | 60 | 1011.7 |
| 20260507025529 | 5 | 76 | 14.5 | 22.5 | 0.00 | 0.00 | 0.00 | 60 | 1011.6 |
| 20260507025023 | 5 | 96 | 12.9 | 19.3 | 0.00 | 0.00 | 0.00 | 61 | 1011.6 |
| 20260507024038 | 5 | 89 | 8.0 | 25.7 | 0.00 | 0.00 | 0.00 | 60 | 1011.5 |
| 20260507023526 | 5 | 79 | 14.5 | 25.7 | 0.00 | 0.00 | 0.00 | 61 | 1011.4 |
| 20260507023036 | 5 | 95 | 14.5 | 24.1 | 0.00 | 0.00 | 0.00 | 61 | 1011.3 |
| 20260507022522 | 5 | 93 | 14.5 | 29.0 | 0.00 | 0.00 | 0.00 | 61 | 1011.4 |
| 20260507022034 | 5 | 75 | 17.7 | 29.0 | 0.00 | 0.00 | 0.00 | 62 | 1011.4 |
| 20260507021524 | 6 | 25 | 14.5 | 29.0 | 0.00 | 0.00 | 0.00 | 61 | 1011.5 |
| 20260507021038 | 6 | 95 | 17.7 | 29.0 | 0.00 | 0.00 | 0.00 | 64 | 1011.5 |
| 20260507020523 | 6 | 77 | 16.1 | 25.7 | 0.00 | 0.00 | 0.00 | 63 | 1011.5 |
| 20260507020039 | 6 | 100 | 11.3 | 19.3 | 0.00 | 0.00 | 0.00 | 64 | 1011.4 |
| 20260507015544 | 6 | 96 | 11.3 | 27.4 | 0.00 | 0.00 | 0.00 | 64 | 1011.4 |
| 20260507015031 | 6 | 105 | 19.3 | 27.4 | 0.00 | 0.00 | 0.00 | 63 | 1011.3 |
| 20260507014540 | 6 | 84 | 11.3 | 24.1 | 0.00 | 0.00 | 0.00 | 64 | 1011.3 |
| 20260507014032 | 6 | 72 | 14.5 | 24.1 | 0.00 | 0.00 | 0.00 | 65 | 1011.3 |
| 20260507013522 | 6 | 71 | 8.0 | 25.7 | 0.00 | 0.00 | 0.00 | 65 | 1011.3 |
| 20260507013031 | 6 | 49 | 12.9 | 25.7 | 0.00 | 0.00 | 0.00 | 66 | 1011.0 |
| 20260507012540 | 7 | 79 | 11.3 | 25.7 | 0.00 | 0.00 | 0.00 | 66 | 1010.8 |
| 20260507012057 | 7 | 58 | 9.7 | 29.0 | 0.00 | 0.00 | 0.00 | 66 | 1010.8 |
| 20260507011522 | 7 | 89 | 20.9 | 29.0 | 0.00 | 0.00 | 0.00 | 64 | 1010.5 |
| 20260507011032 | 7 | 110 | 20.9 | 29.0 | 0.00 | 0.00 | 0.00 | 64 | 1010.5 |
| 20260507010607 | 7 | 95 | 14.5 | 22.5 | 0.00 | 0.00 | 0.00 | 66 | 1010.7 |
| 20260507010054 | 7 | 54 | 8.0 | 19.3 | 0.00 | 0.00 | 0.00 | 66 | 1010.7 |
| 20260507005524 | 7 | 51 | 4.8 | 22.5 | 0.00 | 0.00 | 0.00 | 66 | 1010.5 |
| 20260507005036 | 7 | 96 | 12.9 | 29.0 | 0.00 | 0.00 | 0.00 | 67 | 1010.3 |
| 20260507004524 | 8 | 105 | 14.5 | 35.4 | 0.00 | 0.00 | 0.00 | 66 | 1010.4 |
| 20260507004033 | 8 | 115 | 27.4 | 35.4 | 0.00 | 0.00 | 0.00 | 67 | 1010.2 |
| 20260507003541 | 8 | 103 | 22.5 | 35.4 | 0.00 | 0.00 | 0.00 | 66 | 1010.0 |
| 20260507003035 | 8 | 102 | 29.0 | 35.4 | 0.00 | 0.00 | 0.00 | 67 | 1009.9 |
| 20260507002523 | 8 | 117 | 27.4 | 35.4 | 0.00 | 0.00 | 0.00 | 67 | 1009.8 |
| 20260507002057 | 8 | 101 | 27.4 | 35.4 | 0.00 | 0.00 | 0.00 | 66 | 1009.8 |
| 20260507001527 | 8 | 122 | 25.7 | 35.4 | 0.00 | 0.00 | 0.00 | 67 | 1009.8 |
| 20260507001039 | 8 | 107 | 29.0 | 35.4 | 0.00 | 0.00 | 0.00 | 68 | 1009.8 |
| 20260507000525 | 8 | 108 | 29.0 | 35.4 | 0.00 | 0.00 | 0.00 | 65 | 1009.8 |
| 20260507000038 | 8 | 96 | 20.9 | 35.4 | 0.00 | 0.00 | 0.00 | 63 | 1009.6 |
| 20260506235551 | 9 | 110 | 25.7 | 35.4 | 0.00 | 0.00 | 0.00 | 62 | 1009.6 |
| 20260506235042 | 10 | 84 | 16.1 | 22.5 | 0.00 | 0.00 | 0.00 | 58 | 1009.6 |
| 20260506234546 | 10 | 84 | 11.3 | 16.1 | 0.00 | 0.00 | 0.00 | 58 | 1009.6 |
| 20260506234038 | 11 | 110 | 6.4 | 12.9 | 0.00 | 0.00 | 0.00 | 59 | 1009.6 |
| 20260506233530 | 11 | 314 | 1.6 | 4.8 | 0.00 | 0.00 | 0.00 | 57 | 1009.5 |
| 20260506233039 | 11 | 340 | 0.0 | 6.4 | 0.00 | 0.00 | 0.00 | 55 | 1009.5 |
| 20260506232527 | 11 | 79 | 4.8 | 8.0 | 0.00 | 0.00 | 0.00 | 56 | 1009.5 |
| 20260506232040 | 11 | 39 | 4.8 | 8.0 | 0.00 | 0.00 | 0.00 | 58 | 1009.5 |
| 20260506231530 | 11 | 33 | 3.2 | 6.4 | 0.00 | 0.00 | 0.00 | 56 | 1009.5 |
| 20260506231037 | 11 | 1 | 3.2 | 6.4 | 0.00 | 0.00 | 0.00 | 56 | 1009.5 |
| 20260506230526 | 11 | 314 | 1.6 | 4.8 | 0.00 | 0.00 | 0.00 | 56 | 1009.6 |
| 20260506230038 | 11 | 1 | 1.6 | 6.4 | 0.00 | 0.00 | 0.00 | 56 | 1009.7 |
| 20260506225524 | 11 | 296 | 1.6 | 9.7 | 0.00 | 0.00 | 0.00 | 55 | 1009.7 |
| 20260506225036 | 11 | 32 | 1.6 | 9.7 | 0.00 | 0.00 | 0.00 | 55 | 1009.8 |
| 20260506224524 | 11 | 1 | 3.2 | 20.9 | 0.00 | 0.00 | 0.00 | 55 | 1009.8 |
| 20260506224035 | 11 | 333 | 12.9 | 20.9 | 0.00 | 0.00 | 0.00 | 58 | 1009.7 |
| 20260506223539 | 11 | 223 | 4.8 | 16.1 | 0.00 | 0.00 | 0.00 | 53 | 1009.8 |
| 20260506223036 | 11 | 259 | 8.0 | 16.1 | 0.00 | 0.00 | 0.00 | 53 | 1009.8 |
| 20260506222524 | 11 | 240 | 9.7 | 16.1 | 0.00 | 0.00 | 0.00 | 55 | 1009.7 |
| 20260506222102 | 11 | 224 | 14.5 | 19.3 | 0.00 | 0.00 | 0.00 | 56 | 1009.7 |
| 20260506221552 | 11 | 265 | 12.9 | 19.3 | 0.00 | 0.00 | 0.00 | 58 | 1009.7 |
| 20260506221026 | 11 | 243 | 14.5 | 17.7 | 0.00 | 0.00 | 0.00 | 58 | 1009.7 |
| 20260506220534 | 11 | 281 | 9.7 | 16.1 | 0.00 | 0.00 | 0.00 | 56 | 1009.7 |
| 20260506220045 | 11 | 251 | 9.7 | 17.7 | 0.00 | 0.00 | 0.00 | 56 | 1009.8 |
| 20260506215526 | 11 | 256 | 11.3 | 17.7 | 0.00 | 0.00 | 0.00 | 53 | 1009.7 |
| 20260506215039 | 11 | 236 | 12.9 | 17.7 | 0.00 | 0.00 | 0.00 | 56 | 1009.7 |
| 20260506214523 | 11 | 229 | 11.3 | 16.1 | 0.00 | 0.00 | 0.00 | 58 | 1009.7 |
| 20260506214037 | 11 | 258 | 9.7 | 16.1 | 0.00 | 0.00 | 0.00 | 55 | 1009.7 |
| 20260506213546 | 11 | 179 | 3.2 | 14.5 | 0.00 | 0.00 | 0.00 | 56 | 1009.8 |
| 20260506213034 | 11 | 253 | 9.7 | 19.3 | 0.00 | 0.00 | 0.00 | 55 | 1009.8 |
| 20260506212525 | 11 | 260 | 11.3 | 19.3 | 0.00 | 0.00 | 0.00 | 54 | 1009.8 |
| 20260506212049 | 11 | 311 | 11.3 | 22.5 | 0.00 | 0.00 | 0.00 | 53 | 1009.7 |
| 20260506211601 | 11 | 272 | 9.7 | 22.5 | 0.00 | 0.00 | 0.00 | 51 | 1009.8 |
| 20260506211029 | 12 | 259 | 9.7 | 19.3 | 0.00 | 0.00 | 0.00 | 52 | 1009.7 |
| 20260506210023 | 11 | 226 | 8.0 | 17.7 | 0.00 | 0.00 | 0.00 | 54 | 1009.7 |
| 20260506205528 | 11 | 262 | 12.9 | 17.7 | 0.00 | 0.00 | 0.00 | 52 | 1009.7 |
| 20260506205127 | 11 | 255 | 14.5 | 19.3 | 0.00 | 0.00 | 0.00 | 58 | 1009.7 |
| 20260506204539 | 11 | 235 | 14.5 | 24.1 | 0.00 | 0.00 | 0.00 | 55 | 1009.7 |
| 20260506204024 | 11 | 260 | 17.7 | 24.1 | 0.00 | 0.00 | 0.00 | 55 | 1009.8 |
| 20260506203559 | 11 | 256 | 19.3 | 24.1 | 0.00 | 0.00 | 0.00 | 59 | 1009.8 |
| 20260506203102 | 11 | 225 | 14.5 | 24.1 | 0.00 | 0.00 | 0.00 | 53 | 1009.7 |
| 20260506202525 | 11 | 246 | 17.7 | 24.1 | 0.00 | 0.00 | 0.00 | 59 | 1009.8 |
| 20260506202039 | 11 | 232 | 17.7 | 20.9 | 0.00 | 0.00 | 0.00 | 57 | 1009.9 |
| 20260506201530 | 11 | 231 | 14.5 | 25.7 | 0.00 | 0.00 | 0.00 | 58 | 1009.9 |
| 20260506201048 | 11 | 250 | 14.5 | 25.7 | 0.00 | 0.00 | 0.00 | 55 | 1009.9 |
| 20260506200531 | 11 | 255 | 14.5 | 27.4 | 0.00 | 0.00 | 0.00 | 57 | 1009.9 |
| 20260506200026 | 11 | 234 | 20.9 | 27.4 | 0.00 | 0.00 | 0.00 | 58 | 1009.9 |
| 20260506195536 | 11 | 234 | 14.5 | 24.1 | 0.00 | 0.00 | 0.00 | 60 | 1010.0 |
| 20260506195024 | 11 | 223 | 16.1 | 20.9 | 0.00 | 0.00 | 0.00 | 61 | 1010.0 |
| 20260506194531 | 11 | 240 | 16.1 | 24.1 | 0.00 | 0.00 | 0.00 | 58 | 1010.0 |
| 20260506194025 | 11 | 236 | 17.7 | 22.5 | 0.00 | 0.00 | 0.00 | 59 | 1010.0 |
| 20260506193533 | 10 | 237 | 14.5 | 20.9 | 0.00 | 0.00 | 0.00 | 58 | 1010.0 |